sat.trackr.live / text

‹ back to catalog

STARLINK-2017

NORAD 47351 · 2021-005C

PAYLOAD ACTIVE UNKNOWN

§ Identity

Operator
Country
US
Launch date
2021-01-20
Launch site
AFETR
Launch vehicle
Mass (kg)
RCS (m²)

Purposes: comms

External: N2YO · Heavens-Above · Gunter

§ Orbital elements

Epoch: 2026-09-08T22:33:27.945792Z

Period
93.90 min
Inclination
53.1557°
Eccentricity
0.0002954
Mean motion
15.33557353 rev/d
Perigee alt
463.2 km
Apogee alt
467.2 km
Semi-major
6,843.3 km
B*
1.1832e-3
RAAN
240.6733°
Arg perigee
67.2979°
Mean anomaly
292.8336°
Rev number
31,180

§ Raw data

STARLINK-20171 47351U 21005C   26251.93990678  .00038755  00000+0  11832-2 0  99992 47351  53.1557 240.6733 0002954  67.2979 292.8336 15.33557353311809

JSON: /api/v1/satellites/47351 · /tle

For live sub-satellite position, see the globe view (requires WebGL).

§ Visibility from observer

Set your observer location to see the next 7 days of passes ≥ 10°. The values pass through the URL so the page stays shareable.

No JS? Fill the form by hand. The geolocation button needs JavaScript.